GFSNGP_925_temp_270.txt.gz
Temp
9 9 10 9 10 10 10 11 10 12 12 13 12 11 11 11 12 12 12 12 12 12 13 13 12 12 10 10 9 8 8 8 7 6 6 7 6 5 5 5 4 3 3 2
7 9 9 9 10 9 10 10 11 11 11 13 11 11 11 11 11 11 11 11 11 11 12 12 12 11 10 9 8 8 6 6 5 5 5 4 4 4 3 3 3 2 2 1
7 8 8 7 9 10 10 11 11 10 11 11 10 11 10 10 10 10 10 10 10 10 11 12 12 11 9 8 7 7 6 5 5 5 4 3 3 3 2 2 2 1 1 -0
6 7 6 9 10 10 10 10 10 11 10 10 10 10 9 9 10 9 9 9 9 9 10 11 11 9 8 7 7 6 5 4 4 3 2 2 2 1 1 1 0 -0 -0 -1
5 6 8 9 10 10 10 9 10 10 11 10 10 9 9 10 9 8 8 8 8 7 9 10 9 8 7 6 5 4 4 3 2 2 1 1 0 0 0 -0 -1 -1 -1 -1
1 4 4 9 10 11 10 9 11 11 10 10 9 7 7 9 8 7 8 8 7 6 7 7 6 6 5 5 4 3 2 1 1 1 0 -0 -1 -1 -1 -1 -1 -1 -1 -2
6 6 7 8 10 11 8 9 10 10 10 9 7 7 9 8 7 8 8 7 6 6 5 5 5 4 4 3 2 1 1 0 -0 -1 -1 -1 -1 -1 -2 -2 -2 -3 -3 -4
6 6 6 10 10 8 9 9 9 9 8 8 7 7 7 7 7 7 7 6 5 4 4 4 3 2 2 1 0 -1 -1 -1 -2 -1 -2 -2 -2 -2 -3 -3 -4 -5 -5 -5
5 7 8 8 8 8 8 8 8 8 8 8 7 7 7 7 7 7 7 4 3 3 2 1 1 0 -0 -1 -1 -1 -2 -2 -2 -3 -3 -3 -3 -4 -5 -6 -6 -7 -7 -8
6 7 7 8 9 9 9 9 9 8 7 7 6 7 6 7 6 6 6 4 2 1 0 -1 -1 -1 -1 -1 -2 -2 -3 -3 -4 -4 -5 -5 -5 -6 -6 -7 -8 -8 -8 -9
6 6 7 7 8 8 8 8 8 8 7 6 6 6 6 6 5 5 4 1 1 -0 -1 -2 -2 -2 -2 -2 -2 -3 -4 -5 -5 -5 -6 -6 -6 -7 -7 -7 -8 -8 -10 -10
5 7 7 8 8 8 8 7 8 7 6 6 6 6 6 3 3 2 1 0 -1 -1 -2 -2 -3 -3 -3 -3 -3 -5 -5 -6 -6 -6 -7 -7 -8 -8 -8 -8 -8 -9 -9 -10
6 6 5 4 5 6 7 7 8 7 7 7 5 5 3 2 1 0 -1 -1 -2 -3 -3 -4 -4 -5 -5 -5 -5 -6 -6 -6 -7 -7 -8 -8 -9 -9 -9 -9 -10 -9 -10 -11
3 2 2 3 4 4 4 6 7 5 6 6 4 1 0 -1 -2 -2 -2 -3 -3 -4 -4 -5 -5 -6 -6 -6 -6 -7 -7 -8 -8 -9 -9 -9 -10 -10 -10 -11 -11 -11 -11 -12
2 1 0 0 1 1 2 2 4 3 3 1 1 -1 -2 -2 -3 -3 -3 -4 -4 -5 -5 -6 -6 -7 -7 -7 -7 -7 -8 -9 -9 -10 -10 -10 -10 -11 -11 -11 -12 -12 -12 -11
-1 -1 -1 -1 -1 0 2 2 3 2 2 -0 -1 -3 -3 -4 -4 -4 -4 -5 -5 -5 -6 -7 -7 -7 -8 -8 -8 -9 -9 -10 -10 -10 -11 -11 -11 -12 -12 -13 -13 -13 -14 -14
-3 -3 -2 -2 1 -0 1 3 2 1 -1 -3 -4 -4 -4 -5 -5 -5 -6 -6 -6 -7 -7 -7 -8 -8 -8 -9 -9 -9 -10 -10 -10 -11 -12 -12 -13 -13 -13 -14 -14 -15 -15 -16
-3 -3 -1 3 3 3 2 1 -1 -2 -3 -4 -4 -4 -5 -5 -6 -6 -7 -7 -8 -8 -8 -9 -8 -8 -9 -9 -9 -10 -10 -11 -11 -12 -12 -13 -13 -14 -14 -15 -16 -16 -16 -16
-4 -4 -3 -1 -1 -1 -2 -3 -3 -4 -5 -5 -5 -5 -6 -7 -7 -7 -8 -8 -8 -9 -9 -9 -9 -9 -9 -9 -9 -9 -10 -11 -12 -13 -13 -13 -13 -15 -15 -16 -16 -16 -16 -16
-4 -5 -5 -4 -4 -4 -4 -4 -5 -5 -6 -6 -6 -7 -7 -7 -8 -8 -8 -9 -9 -9 -10 -9 -9 -9 -9 -9 -9 -10 -11 -12 -13 -13 -13 -14 -15 -15 -15 -15 -16 -16 -16 -16
-5 -5 -5 -6 -6 -6 -6 -6 -6 -6 -7 -7 -7 -7 -8 -8 -8 -8 -8 -9 -10 -10 -10 -9 -9 -9 -10 -10 -10 -11 -12 -12 -12 -13 -14 -15 -15 -15 -15 -15 -16 -16 -16 -16
-5 -5 -6 -6 -6 -7 -7 -7 -7 -7 -8 -8 -8 -8 -9 -9 -9 -10 -10 -10 -11 -9 -9 -10 -9 -10 -10 -11 -11 -11 -11 -13 -14 -14 -14 -14 -14 -15 -15 -16 -16 -16 -16 -16
-4 -5 -6 -6 -6 -7 -7 -8 -8 -8 -8 -8 -8 -8 -8 -9 -9 -10 -11 -11 -10 -10 -10 -10 -11 -11 -10 -10 -11 -12 -13 -13 -14 -14 -14 -14 -15 -15 -16 -16 -16 -16 -16 -16
-4 -5 -5 -6 -6 -7 -7 -8 -9 -9 -9 -9 -9 -9 -10 -11 -11 -10 -11 -10 -10 -10 -11 -11 -11 -11 -11 -12 -12 -12 -13 -14 -14 -14 -14 -14 -15 -15 -15 -16 -16 -16 -15 -15
-5 -5 -6 -6 -7 -8 -8 -8 -9 -9 -9 -10 -10 -10 -10 -10 -11 -11 -11 -11 -11 -11 -12 -12 -12 -11 -11 -12 -13 -13 -14 -13 -13 -13 -14 -15 -15 -15 -16 -16 -16 -16 -15 -16
-5 -6 -6 -6 -7 -8 -8 -9 -10 -10 -10 -11 -11 -10 -10 -10 -11 -11 -11 -11 -11 -11 -12 -12 -11 -12 -12 -13 -13 -13 -13 -13 -14 -14 -14 -15 -15 -15 -16 -15 -15 -16 -16 -16
-5 -6 -6 -7 -7 -8 -8 -9 -9 -10 -10 -11 -12 -11 -10 -10 -10 -10 -11 -12 -12 -12 -12 -12 -12 -12 -13 -12 -12 -13 -13 -14 -14 -14 -15 -15 -15 -15 -16 -16 -16 -16 -16 -16

GFSNGP_925_temp_273.txt.gz
Temp
11 11 10 10 10 11 10 11 10 12 12 14 15 15 15 14 14 14 13 13 13 12 13 12 11 12 11 10 9 8 7 6 5 5 5 4 4 3 2 2 1 1 1 0
9 9 9 9 10 10 10 11 11 11 12 14 14 15 14 13 13 13 13 12 12 12 12 11 11 11 11 9 8 7 5 5 4 4 4 3 3 3 2 2 1 1 0 -0
7 9 9 8 10 11 11 11 11 10 12 13 13 13 13 13 13 13 12 12 11 11 10 10 11 11 10 8 6 6 5 5 4 3 3 3 2 2 1 1 0 0 -0 -1
6 7 6 10 11 11 11 11 12 12 13 13 13 13 13 13 13 13 12 11 11 10 9 9 9 9 8 7 6 5 4 4 3 2 2 1 1 0 0 -0 -1 -1 -1 -1
6 7 9 9 10 11 10 11 12 12 13 13 13 11 12 13 13 12 11 11 10 9 8 8 7 6 6 5 4 3 2 2 1 0 -0 -1 -1 -1 -1 -1 -2 -2 -2 -2
6 6 6 10 11 12 11 9 13 13 12 11 11 11 12 12 12 12 11 10 9 8 7 7 6 4 3 2 2 1 0 -0 -1 -1 -1 -2 -2 -2 -2 -2 -3 -3 -4 -4
7 6 8 11 11 12 8 10 12 11 10 10 10 11 11 11 11 11 10 9 8 7 5 5 4 3 2 0 -0 -1 -1 -1 -1 -2 -2 -2 -2 -3 -3 -3 -3 -4 -5 -5
7 6 6 11 11 9 11 12 10 10 10 10 10 10 10 10 10 11 10 8 6 5 4 3 2 1 -0 -1 -1 -1 -2 -2 -3 -3 -3 -4 -4 -5 -4 -4 -5 -5 -5 -6
7 9 11 10 10 11 11 10 10 10 10 10 10 10 10 10 10 10 8 7 4 4 2 1 0 -0 -1 -2 -2 -3 -3 -3 -4 -4 -5 -5 -5 -5 -6 -6 -6 -6 -6 -6
7 8 9 9 10 10 10 9 10 10 10 9 9 9 9 9 9 9 7 5 4 1 -0 -1 -2 -2 -2 -2 -3 -3 -4 -4 -5 -5 -6 -6 -6 -6 -7 -6 -7 -7 -7 -7
7 8 8 9 9 9 9 9 9 9 9 9 9 9 9 9 8 5 4 2 1 -1 -1 -2 -2 -3 -3 -3 -4 -4 -5 -5 -6 -6 -6 -7 -7 -7 -7 -8 -8 -8 -8 -8
5 5 4 4 4 4 4 6 8 8 8 9 8 8 8 5 4 4 1 -0 -1 -2 -2 -3 -4 -4 -4 -4 -4 -5 -5 -6 -6 -6 -7 -7 -7 -8 -9 -9 -9 -10 -10 -10
3 2 1 2 3 3 3 2 3 5 7 7 7 7 6 4 2 0 -0 -2 -3 -4 -4 -5 -5 -5 -5 -5 -6 -6 -6 -7 -7 -7 -7 -8 -8 -8 -8 -9 -10 -11 -11 -12
2 0 -0 1 -0 0 -0 1 2 1 1 5 6 3 2 0 -1 -2 -3 -4 -4 -5 -5 -6 -6 -6 -7 -7 -7 -8 -8 -8 -8 -8 -9 -9 -9 -9 -9 -9 -9 -10 -11 -12
0 -0 -1 -2 -1 -1 -1 -0 1 1 2 3 2 -0 -1 -2 -3 -4 -4 -5 -5 -6 -6 -6 -6 -7 -7 -8 -8 -8 -8 -9 -9 -9 -9 -9 -9 -10 -10 -10 -10 -10 -11 -12
-2 -1 -1 -0 1 1 0 -0 1 2 0 -0 -1 -2 -3 -4 -4 -4 -5 -5 -5 -6 -7 -7 -7 -8 -8 -9 -9 -9 -9 -10 -9 -9 -10 -10 -10 -10 -11 -11 -11 -11 -12 -13
-3 -3 -3 -0 2 1 2 2 1 -0 -1 -2 -3 -4 -4 -5 -5 -6 -6 -7 -7 -8 -8 -8 -9 -9 -9 -9 -9 -9 -9 -10 -10 -10 -11 -11 -11 -12 -12 -12 -12 -13 -13 -15
-4 -4 -3 -2 -1 -1 -2 -2 -2 -3 -3 -4 -4 -5 -5 -6 -6 -7 -8 -8 -8 -9 -9 -9 -9 -9 -9 -9 -9 -10 -10 -10 -11 -11 -12 -13 -12 -13 -13 -14 -14 -14 -15 -15
-5 -5 -5 -4 -4 -3 -4 -4 -4 -5 -5 -6 -6 -6 -7 -7 -7 -8 -8 -8 -8 -9 -10 -10 -10 -10 -10 -11 -10 -11 -11 -12 -12 -13 -13 -14 -14 -14 -15 -15 -15 -16 -16 -16
-5 -5 -6 -6 -5 -5 -5 -5 -6 -6 -6 -6 -7 -7 -7 -8 -8 -9 -9 -9 -9 -9 -10 -10 -10 -10 -11 -11 -11 -11 -12 -13 -13 -14 -14 -15 -15 -16 -16 -16 -17 -17 -17 -17
-6 -6 -6 -6 -6 -6 -6 -6 -6 -7 -7 -7 -8 -8 -8 -9 -9 -8 -8 -9 -10 -10 -11 -10 -11 -11 -11 -10 -11 -13 -13 -14 -14 -14 -15 -16 -16 -17 -17 -17 -17 -18 -18 -18
-6 -6 -6 -6 -7 -7 -7 -7 -7 -8 -8 -8 -9 -9 -9 -10 -10 -11 -10 -10 -11 -10 -11 -11 -10 -9 -10 -11 -12 -12 -12 -12 -14 -14 -15 -17 -17 -17 -17 -18 -18 -18 -17 -17
-5 -5 -6 -6 -6 -7 -8 -8 -8 -8 -8 -8 -8 -8 -8 -9 -9 -9 -10 -12 -11 -10 -10 -10 -10 -10 -9 -10 -11 -11 -12 -13 -14 -15 -15 -16 -15 -16 -17 -16 -17 -16 -16 -16
-4 -5 -6 -6 -6 -6 -7 -8 -8 -9 -9 -9 -9 -9 -9 -10 -11 -11 -10 -10 -10 -9 -10 -11 -11 -10 -9 -11 -12 -13 -13 -14 -15 -15 -15 -15 -16 -15 -15 -16 -16 -16 -16 -16
-5 -6 -6 -6 -7 -7 -8 -8 -8 -9 -9 -9 -10 -10 -10 -10 -11 -12 -10 -11 -11 -11 -11 -11 -10 -11 -11 -12 -13 -13 -14 -14 -14 -15 -15 -15 -15 -15 -16 -16 -16 -16 -16 -16
-5 -5 -6 -6 -7 -7 -8 -8 -8 -9 -9 -10 -11 -11 -11 -10 -11 -11 -11 -11 -11 -11 -11 -12 -12 -12 -12 -12 -13 -13 -14 -14 -15 -14 -15 -14 -15 -15 -15 -15 -15 -16 -16 -16
-5 -6 -6 -7 -7 -8 -8 -8 -8 -9 -10 -10 -11 -12 -11 -10 -10 -10 -11 -11 -11 -12 -12 -13 -13 -12 -12 -13 -13 -14 -14 -14 -14 -14 -14 -15 -15 -15 -15 -15 -16 -15 -15 -16

GFSNGP_925_temp_276.txt.gz
Temp
15 15 14 14 14 13 13 14 13 14 14 16 16 17 17 17 17 16 16 16 16 16 16 14 14 14 12 12 10 8 7 6 5 4 4 3 3 2 1 1 1 2 1 0
12 13 13 13 13 13 13 14 14 14 14 16 17 17 17 17 16 16 16 16 16 15 15 14 13 12 11 10 8 6 5 5 4 4 3 3 2 2 1 1 0 0 -0 -0
10 12 12 11 13 13 14 14 14 13 14 15 15 16 16 15 16 15 15 15 15 15 14 13 12 10 8 7 6 5 4 4 3 2 2 1 0 -0 -1 -0 -1 -1 -2 -2
9 10 9 14 15 14 13 13 14 14 15 14 15 16 16 16 15 15 15 15 15 14 13 12 10 8 6 5 4 3 2 2 1 0 -1 -1 -1 -1 -1 -1 -1 -1 -2 -2
8 10 12 13 14 14 13 13 14 14 14 15 15 15 15 15 15 14 15 14 14 13 12 11 8 7 4 3 2 1 -0 -1 -1 -1 -1 -2 -2 -2 -2 -3 -3 -4 -4 -3
9 8 8 14 14 14 14 12 15 15 14 13 14 12 14 13 14 14 14 14 13 12 11 8 7 4 3 1 1 -0 -1 -1 -1 -2 -2 -2 -2 -3 -3 -3 -4 -3 -3 -3
9 8 10 13 14 14 10 13 15 14 14 13 12 13 14 13 13 13 13 13 11 10 8 5 4 3 1 -0 -1 -1 -1 -2 -2 -3 -3 -3 -3 -4 -4 -3 -3 -2 -3 -3
11 9 9 14 13 11 12 11 12 12 12 12 13 13 13 13 13 13 13 12 10 9 5 3 2 1 -1 -1 -2 -2 -2 -3 -3 -3 -4 -5 -5 -5 -5 -4 -4 -3 -3 -3
10 12 14 13 11 12 12 11 10 9 10 10 11 12 12 12 12 12 12 10 8 6 2 1 -0 -1 -2 -2 -3 -3 -3 -4 -5 -5 -5 -5 -5 -5 -5 -4 -4 -4 -4 -4
9 11 12 12 10 10 8 7 8 9 10 9 9 11 11 11 12 12 10 7 5 1 -1 -2 -2 -2 -3 -3 -3 -4 -4 -4 -5 -4 -4 -5 -6 -6 -6 -5 -5 -5 -5 -5
9 11 9 8 7 6 5 4 4 4 3 7 9 8 10 10 11 9 6 3 1 -1 -2 -3 -3 -3 -3 -3 -4 -4 -4 -5 -5 -5 -6 -6 -7 -7 -7 -9 -8 -7 -7 -7
6 6 3 3 4 4 2 2 3 3 3 3 6 7 9 8 8 7 3 0 -1 -2 -3 -3 -4 -4 -4 -4 -4 -4 -4 -5 -5 -5 -5 -5 -6 -8 -9 -9 -10 -10 -10 -10
3 2 2 2 3 3 2 2 1 1 2 2 3 5 6 6 5 1 -1 -2 -3 -3 -4 -4 -4 -5 -5 -5 -5 -5 -5 -6 -6 -6 -6 -5 -5 -5 -5 -9 -9 -10 -10 -11
4 1 1 1 0 2 3 2 1 1 1 3 2 4 3 1 -1 -2 -3 -4 -4 -4 -4 -5 -5 -6 -6 -7 -7 -7 -7 -7 -7 -6 -6 -6 -6 -6 -6 -6 -6 -7 -8 -10
2 1 0 -0 1 2 4 4 2 2 3 2 2 0 -1 -2 -3 -4 -5 -5 -5 -5 -5 -6 -6 -6 -7 -7 -6 -7 -7 -7 -7 -7 -7 -7 -7 -7 -7 -7 -7 -7 -8 -9
-1 0 -0 -0 0 0 1 2 1 1 -0 -1 -2 -3 -4 -4 -4 -4 -4 -5 -4 -5 -6 -7 -7 -7 -7 -7 -7 -7 -8 -8 -7 -7 -7 -7 -7 -8 -8 -8 -8 -8 -9 -11
-2 -2 -2 -1 -1 -1 -1 -1 -1 -2 -2 -3 -3 -4 -5 -5 -5 -6 -6 -6 -7 -7 -7 -8 -8 -8 -7 -7 -7 -7 -7 -8 -8 -8 -8 -8 -8 -9 -9 -9 -9 -9 -10 -12
-3 -3 -3 -2 -2 -2 -3 -3 -3 -4 -4 -4 -5 -5 -5 -5 -6 -7 -7 -8 -8 -8 -8 -9 -9 -8 -8 -7 -7 -7 -7 -8 -8 -9 -9 -10 -9 -10 -10 -10 -11 -11 -11 -12
-4 -4 -4 -3 -4 -4 -4 -4 -5 -5 -5 -6 -6 -6 -6 -7 -7 -7 -8 -8 -8 -8 -9 -9 -9 -8 -8 -8 -8 -8 -8 -9 -9 -10 -10 -10 -11 -11 -12 -12 -12 -12 -12 -12
-4 -5 -5 -5 -5 -4 -5 -5 -5 -5 -6 -6 -7 -7 -7 -7 -8 -8 -7 -7 -7 -8 -8 -8 -8 -8 -9 -9 -9 -9 -9 -10 -10 -12 -12 -12 -11 -12 -12 -13 -13 -13 -13 -13
-5 -5 -5 -5 -5 -5 -5 -6 -6 -6 -7 -7 -7 -7 -7 -7 -7 -7 -6 -7 -9 -9 -9 -8 -8 -8 -9 -9 -9 -10 -10 -11 -11 -12 -12 -12 -12 -13 -13 -13 -14 -14 -14 -14
-4 -5 -5 -5 -5 -5 -6 -6 -6 -7 -7 -8 -8 -8 -8 -8 -9 -9 -8 -8 -9 -9 -9 -10 -10 -11 -10 -10 -10 -11 -11 -12 -12 -12 -13 -13 -14 -14 -14 -14 -15 -15 -15 -15
-3 -4 -4 -5 -5 -5 -6 -6 -7 -7 -7 -7 -7 -6 -6 -6 -6 -6 -8 -9 -9 -10 -10 -12 -10 -10 -11 -12 -12 -12 -13 -13 -13 -14 -15 -15 -15 -15 -15 -16 -15 -16 -16 -16
-2 -3 -3 -4 -4 -4 -5 -6 -7 -8 -9 -9 -9 -8 -8 -8 -9 -10 -11 -11 -12 -11 -11 -10 -10 -11 -12 -13 -13 -13 -14 -14 -14 -15 -15 -16 -15 -15 -16 -16 -17 -17 -17 -17
-3 -3 -3 -3 -3 -4 -5 -5 -6 -6 -6 -7 -8 -8 -8 -8 -9 -10 -11 -12 -12 -11 -11 -10 -10 -11 -12 -13 -14 -14 -15 -15 -15 -15 -16 -16 -16 -16 -16 -17 -17 -18 -17 -17
-2 -2 -2 -3 -3 -4 -4 -4 -5 -5 -6 -7 -8 -9 -10 -10 -11 -11 -12 -12 -12 -12 -13 -13 -12 -11 -12 -14 -14 -15 -15 -15 -16 -16 -16 -16 -16 -16 -17 -18 -18 -18 -18 -18
-2 -3 -3 -3 -4 -4 -4 -4 -5 -5 -6 -7 -8 -9 -10 -10 -11 -11 -12 -12 -13 -13 -13 -12 -12 -13 -14 -14 -14 -14 -16 -14 -14 -17 -16 -15 -16 -16 -16 -18 -17 -18 -17 -17

GFSNGP_925_temp_279.txt.gz
Temp
17 17 17 17 17 17 17 17 15 16 16 17 18 18 17 17 18 18 18 18 17 17 17 16 15 14 12 8 7 7 5 5 4 3 3 2 2 1 0 -0 -1 -1 -2 -1
14 17 17 16 16 16 16 16 17 17 17 18 18 18 18 17 17 17 14 16 17 17 16 15 14 13 11 7 6 5 5 4 3 2 1 1 0 -1 -1 -1 -2 -2 -3 -3
13 15 14 13 16 16 17 17 16 15 16 17 17 18 17 18 17 14 13 16 16 16 16 15 13 11 8 6 4 3 3 2 1 0 -1 -1 -1 -1 -2 -2 -2 -3 -4 -4
12 13 11 16 18 17 16 16 17 17 17 17 17 18 18 18 16 14 15 15 16 16 15 14 12 10 6 4 3 2 1 -0 -1 -1 -1 -1 -1 -2 -2 -3 -3 -3 -4 -5
10 11 13 15 17 16 15 14 16 16 16 17 17 17 16 15 15 15 15 15 15 15 14 12 9 6 4 2 1 -0 -1 -1 -1 -1 -1 -2 -2 -3 -3 -4 -4 -4 -4 -3
11 9 10 15 16 17 16 13 16 14 14 13 12 13 15 14 12 13 15 15 15 14 12 9 6 4 2 1 -1 -1 -1 -2 -2 -2 -2 -3 -3 -3 -4 -4 -4 -3 -3 -4
11 9 12 15 16 15 9 12 12 11 11 11 10 8 10 13 15 15 15 14 14 12 9 5 4 1 -0 -1 -2 -2 -2 -2 -3 -3 -4 -4 -4 -4 -3 -2 -3 -3 -2 -2
13 11 11 16 15 11 11 9 9 9 9 8 9 10 9 10 13 14 15 14 12 9 5 3 1 -1 -2 -2 -2 -3 -3 -4 -4 -4 -4 -3 -3 -3 -2 -2 -2 -2 -2 -2
12 13 15 14 13 13 11 9 8 7 6 5 5 7 10 10 10 13 13 11 7 5 1 -0 -1 -2 -2 -2 -3 -4 -4 -4 -4 -4 -4 -3 -3 -3 -3 -3 -3 -3 -3 -3
12 13 13 12 12 11 9 6 6 5 5 4 3 3 6 8 8 11 10 7 4 1 -1 -2 -2 -3 -3 -3 -4 -4 -4 -4 -4 -4 -4 -4 -5 -6 -6 -5 -5 -4 -4 -5
11 13 11 10 9 7 5 5 3 4 4 3 3 4 2 7 8 7 5 3 1 -1 -2 -2 -3 -3 -3 -4 -4 -4 -3 -3 -3 -4 -5 -6 -7 -7 -8 -9 -9 -8 -8 -7
8 9 6 5 6 5 3 1 4 3 4 4 4 4 4 7 6 4 2 0 -1 -2 -3 -3 -3 -4 -4 -4 -3 -3 -3 -3 -3 -3 -3 -3 -4 -6 -9 -8 -9 -9 -10 -10
7 6 5 5 5 3 1 4 5 4 3 4 4 3 5 3 1 -1 -1 -2 -3 -3 -4 -4 -4 -5 -4 -4 -4 -4 -4 -4 -4 -4 -4 -4 -4 -4 -4 -7 -7 -8 -9 -10
7 4 3 4 1 1 2 3 4 5 5 4 2 1 -0 -1 -2 -3 -3 -3 -4 -4 -5 -5 -5 -5 -5 -5 -5 -5 -5 -5 -5 -5 -5 -5 -5 -5 -5 -5 -5 -6 -7 -9
4 3 3 2 1 2 3 3 1 0 0 -1 -1 -2 -2 -3 -3 -3 -4 -4 -5 -5 -5 -5 -5 -5 -5 -5 -5 -5 -5 -5 -5 -6 -5 -5 -5 -5 -5 -5 -5 -6 -7 -9
1 3 3 1 0 1 1 2 1 -1 -1 -2 -2 -3 -3 -3 -4 -4 -4 -4 -4 -5 -6 -6 -6 -5 -5 -5 -6 -6 -6 -6 -5 -5 -6 -6 -6 -6 -6 -6 -6 -7 -8 -10
-1 -0 -1 -0 0 -1 -1 -1 -1 -2 -3 -3 -3 -4 -4 -5 -5 -5 -6 -6 -6 -6 -7 -7 -6 -6 -5 -5 -5 -5 -6 -6 -6 -6 -6 -6 -7 -7 -7 -7 -8 -8 -8 -10
-2 -2 -2 -1 -0 -2 -2 -3 -3 -3 -3 -4 -5 -5 -5 -5 -6 -7 -7 -7 -7 -8 -7 -7 -7 -6 -6 -6 -6 -6 -6 -6 -7 -7 -7 -8 -8 -8 -8 -8 -9 -9 -9 -10
-3 -3 -3 -2 -3 -3 -3 -4 -4 -4 -5 -5 -5 -5 -6 -6 -6 -7 -7 -7 -7 -7 -7 -7 -7 -7 -7 -6 -6 -6 -7 -7 -7 -8 -8 -8 -9 -9 -10 -9 -10 -10 -10 -10
-3 -4 -4 -4 -4 -4 -4 -5 -5 -5 -5 -6 -6 -6 -6 -6 -7 -7 -7 -6 -6 -6 -6 -6 -6 -6 -7 -7 -7 -7 -7 -8 -8 -9 -9 -9 -9 -10 -10 -10 -11 -11 -11 -11
-3 -4 -4 -4 -4 -4 -5 -5 -5 -5 -6 -6 -6 -6 -6 -6 -6 -6 -5 -6 -7 -7 -7 -6 -6 -6 -7 -7 -7 -8 -8 -9 -9 -10 -10 -10 -10 -11 -11 -11 -11 -12 -12 -12
-3 -3 -4 -4 -4 -4 -5 -5 -6 -6 -7 -7 -7 -7 -7 -7 -7 -7 -6 -6 -7 -7 -8 -8 -9 -9 -8 -8 -9 -9 -10 -10 -10 -11 -11 -11 -11 -12 -12 -12 -12 -13 -13 -13
-2 -2 -3 -3 -3 -4 -5 -5 -6 -6 -6 -6 -5 -4 -4 -4 -5 -5 -7 -7 -8 -9 -10 -11 -11 -11 -10 -10 -10 -10 -11 -11 -11 -12 -12 -12 -12 -12 -13 -14 -13 -14 -14 -14
0 -0 -1 -2 -3 -3 -3 -4 -5 -6 -7 -7 -7 -6 -6 -7 -8 -8 -9 -10 -10 -10 -11 -12 -12 -11 -11 -11 -11 -11 -11 -11 -12 -12 -12 -13 -13 -13 -13 -14 -14 -14 -15 -15
-0 -1 -1 -1 -0 -1 -2 -3 -3 -4 -4 -5 -5 -5 -5 -6 -7 -9 -10 -11 -11 -11 -11 -11 -12 -12 -11 -12 -12 -13 -13 -13 -13 -13 -13 -13 -13 -14 -14 -15 -15 -15 -15 -16
0 0 0 0 -0 -1 -2 -2 -2 -3 -4 -5 -6 -7 -8 -8 -9 -9 -10 -11 -11 -11 -11 -11 -12 -12 -12 -12 -13 -13 -13 -13 -13 -14 -14 -14 -14 -15 -15 -15 -16 -16 -16 -16
1 0 0 -0 -1 -1 -1 -1 -2 -3 -3 -5 -6 -7 -8 -8 -9 -10 -10 -10 -11 -11 -11 -11 -12 -12 -12 -12 -13 -13 -13 -13 -14 -14 -14 -15 -15 -15 -16 -16 -16 -16 -17 -16

GFSNGP_925_temp_282.txt.gz
Temp
17 18 17 17 18 18 18 18 17 17 17 19 19 18 18 18 19 19 18 15 15 15 15 16 14 13 10 8 6 5 4 3 2 1 1 -0 -1 -2 -2 -3 -3 -3 -1 -1
14 16 18 17 17 17 18 18 18 17 17 19 19 19 18 19 19 18 16 15 15 15 16 15 13 11 8 5 4 3 2 1 0 -0 -1 -1 -2 -2 -3 -4 -4 -4 -4 -3
13 16 15 15 17 17 17 17 17 16 17 17 16 14 13 17 17 16 15 15 15 16 16 12 10 8 5 4 2 1 0 -0 -1 -1 -1 -2 -2 -3 -3 -3 -4 -5 -5 -5
12 13 12 16 17 18 16 16 16 16 15 14 14 14 13 11 8 11 13 13 14 15 11 9 8 5 3 2 1 -0 -1 -1 -1 -1 -2 -2 -3 -3 -4 -4 -4 -4 -5 -5
11 11 13 16 17 16 14 14 15 11 11 12 12 12 12 13 10 8 7 6 10 12 10 7 5 3 2 -0 -1 -1 -2 -2 -2 -2 -3 -3 -3 -4 -4 -4 -4 -4 -4 -4
11 10 10 15 16 16 15 12 11 11 11 10 9 7 9 11 11 11 9 8 7 10 7 5 3 1 -1 -1 -2 -2 -2 -3 -3 -3 -3 -3 -3 -3 -2 -2 -2 -2 -4 -4
12 10 12 16 15 15 11 11 11 10 9 8 6 6 7 8 7 9 9 8 9 6 4 2 0 -1 -2 -2 -2 -3 -3 -3 -4 -4 -3 -3 -2 -2 -2 -2 -2 -2 -3 -4
14 12 11 16 14 10 11 10 9 8 7 6 5 5 6 6 7 6 9 8 6 3 1 0 -1 -2 -2 -2 -3 -4 -4 -4 -4 -4 -3 -3 -2 -3 -3 -3 -3 -3 -4 -5
14 14 15 15 12 12 10 8 7 6 5 3 3 4 5 5 5 5 7 5 2 1 -0 -1 -2 -2 -3 -3 -4 -4 -4 -4 -4 -4 -5 -5 -6 -6 -5 -5 -4 -5 -6 -6
13 14 14 12 12 10 8 6 5 4 2 4 4 5 4 5 3 5 3 3 1 -1 -2 -2 -3 -3 -4 -4 -4 -4 -3 -4 -5 -6 -6 -6 -7 -8 -8 -8 -7 -8 -7 -8
12 13 11 11 9 7 6 4 3 4 5 5 5 5 6 4 4 2 1 -0 -1 -2 -2 -3 -3 -4 -4 -4 -3 -3 -2 -3 -3 -4 -5 -7 -7 -7 -8 -9 -9 -9 -9 -9
10 9 7 7 7 6 4 3 4 4 6 5 4 3 2 3 1 -0 -1 -2 -2 -3 -3 -4 -4 -4 -3 -3 -2 -2 -2 -3 -3 -3 -3 -4 -6 -7 -8 -8 -8 -8 -9 -9
8 7 6 6 6 4 3 4 3 3 3 3 1 1 0 -1 -1 -2 -2 -3 -4 -4 -5 -5 -5 -4 -4 -4 -4 -4 -4 -4 -4 -5 -5 -4 -5 -5 -5 -7 -6 -7 -8 -9
7 5 4 4 2 2 3 3 2 1 -0 -1 -1 -1 -1 -2 -3 -3 -4 -4 -5 -5 -5 -5 -5 -5 -4 -4 -4 -4 -5 -5 -5 -5 -5 -5 -5 -5 -5 -5 -6 -7 -8 -9
5 4 4 3 2 2 2 2 1 -0 -1 -2 -2 -2 -3 -3 -4 -4 -5 -5 -5 -5 -5 -5 -5 -6 -6 -5 -5 -5 -5 -5 -5 -5 -5 -6 -6 -6 -6 -6 -6 -7 -9 -10
2 3 2 1 1 1 1 1 -0 -2 -2 -2 -3 -4 -4 -5 -5 -5 -6 -5 -5 -6 -6 -5 -5 -5 -5 -5 -6 -6 -6 -6 -6 -6 -6 -6 -7 -7 -7 -7 -8 -8 -9 -10
-0 0 -1 0 1 -0 -1 -1 -1 -2 -3 -4 -4 -5 -5 -5 -6 -6 -6 -6 -6 -6 -6 -6 -5 -5 -5 -5 -5 -6 -6 -6 -7 -7 -7 -7 -8 -8 -8 -8 -8 -9 -9 -10
-1 -2 -2 -1 -0 -1 -2 -2 -3 -4 -4 -5 -5 -6 -6 -6 -7 -7 -7 -7 -7 -7 -7 -6 -6 -6 -6 -6 -6 -6 -6 -7 -7 -7 -8 -8 -8 -9 -9 -9 -10 -10 -10 -11
-2 -2 -2 -2 -2 -3 -3 -4 -4 -5 -5 -5 -6 -6 -6 -6 -7 -7 -6 -6 -6 -6 -6 -6 -6 -6 -6 -6 -7 -7 -7 -8 -8 -8 -9 -9 -9 -9 -10 -10 -11 -11 -11 -11
-3 -3 -3 -4 -4 -4 -4 -5 -5 -5 -5 -6 -6 -6 -7 -7 -7 -6 -6 -6 -5 -6 -6 -6 -6 -6 -7 -7 -7 -8 -8 -8 -9 -9 -10 -10 -10 -11 -11 -11 -12 -12 -12 -13
-3 -3 -4 -4 -4 -5 -4 -5 -5 -5 -6 -6 -6 -6 -6 -6 -6 -6 -6 -6 -7 -7 -6 -6 -7 -7 -7 -8 -9 -9 -9 -9 -10 -10 -11 -11 -11 -12 -12 -12 -12 -13 -13 -14
-3 -3 -4 -4 -4 -5 -5 -5 -6 -6 -6 -6 -6 -6 -6 -6 -6 -6 -6 -7 -8 -8 -8 -9 -8 -8 -8 -9 -9 -10 -10 -10 -11 -11 -11 -12 -12 -12 -13 -13 -13 -14 -14 -14
-2 -3 -3 -3 -3 -4 -5 -5 -6 -6 -6 -6 -6 -5 -4 -5 -5 -6 -7 -8 -9 -9 -10 -10 -10 -9 -9 -10 -10 -10 -11 -11 -11 -12 -12 -12 -13 -13 -13 -14 -14 -14 -15 -15
-0 -1 -2 -2 -3 -4 -4 -5 -4 -5 -6 -5 -5 -5 -5 -7 -8 -8 -9 -9 -10 -10 -10 -10 -10 -10 -10 -10 -11 -11 -11 -11 -12 -12 -12 -13 -13 -14 -14 -14 -15 -15 -15 -15
1 -0 -1 -2 -1 -1 -2 -3 -4 -5 -4 -5 -5 -5 -6 -7 -8 -9 -10 -10 -11 -10 -11 -11 -11 -10 -10 -11 -11 -12 -12 -12 -12 -13 -13 -13 -14 -14 -15 -15 -15 -15 -15 -16
1 0 0 1 1 -1 -2 -2 -2 -3 -3 -4 -5 -6 -7 -8 -9 -9 -10 -10 -10 -10 -11 -11 -11 -11 -11 -12 -12 -12 -12 -13 -13 -13 -13 -14 -14 -15 -15 -15 -15 -15 -15 -15
1 1 1 1 0 -0 -1 -1 -1 -2 -3 -4 -6 -7 -8 -8 -9 -10 -10 -10 -10 -10 -10 -10 -11 -11 -12 -12 -12 -12 -11 -12 -12 -13 -14 -14 -15 -15 -15 -15 -15 -14 -14 -15